カタログに戻る

STARLINK-5966

運用中通信VLEO
NORAD 56919·PAYLOAD·🇺🇸 United States

打ち上げ Jun 12, 2023 から Cape Canaveral Space Force Station

Loading…

次のパス (今後24時間)

TLE

最新Source: CelesTrak SupGP

元期: Sep 15, 2026, 03:08 UTC

1 56919C 23083AV  26258.13104167 -.00032112  00000+0 -11629-2 0  2581
2 56919  42.9998  80.4744 0002124 254.6655 144.4175 15.27597667    14

AllMySatでSTARLINK-5966をリアルタイム追跡

Download on the App Store